"Pseudo-MPEC" for ZKA5A38

Created 2018 May 19 18:18:22 UT using Find_Orb

Click here for an explanation of pseudo-MPECs

 
 Astrometry: 
     ZKA5A38  C2018 05 16.23420 13 08 45.63 -02 43 59.7          20.7 GUNEOCPG96
     ZKA5A38  C2018 05 16.23934 13 08 48.75 -02 43 27.6          20.6 GUNEOCPG96
     ZKA5A38  C2018 05 16.24449 13 08 51.87 -02 42 55.5          20.3 GUNEOCPG96
     ZKA5A38  C2018 05 16.24964 13 08 54.96 -02 42 23.4          21.1 GUNEOCPG96
     ZKA5A38  C2018 05 16.27741 13 09 11.87 -02 39 30.3          21.3 GUNEOCPI52
     ZKA5A38  C2018 05 16.27867 13 09 12.64 -02 39 22.8          21.0 GUNEOCPI52
     ZKA5A38  C2018 05 16.27992 13 09 13.42 -02 39 14.6          20.4 GUNEOCPI52
     ZKA5A38  C2018 05 16.28116 13 09 14.16 -02 39 07.5          20.6 GUNEOCPI52
     ZKA5A38  C2018 05 16#'AstrometrywWKQ[2Qm0@lh;Ga'G$+p\)(+EvM.yT_VY7llh_nRH01
     ZKA5A38  C2018 05 16Y:Ata\!c:aYvj;[ik.wE=]!vNGB`jn?^imKoc?0vkQC\`@'WW]-+H01
     ZKA5A38  C2018 05 16^*!EtJdY9XY?'B8kr.Ec`hyb[W@%H[!C+fVxxi=%e0J]oF$]y$yZH01
     ZKA5A38  C2018 05 165?R.yUVZVS?vc=tR5S=E#cLh/F/46(gD[vTo,b4)KRW$AeAfBvOoH01
     ZKA5A38  C2018 05 16.34614 13 09 54.20 -02 32 21.4          20.2 GUNEOCPI52
     ZKA5A38  C2018 05 16.34738 13 09 54.99 -02 32 13.5          19.9 GUNEOCPI52
     ZKA5A38  C2018 05 16.34862 13 09 55.75 -02 32 05.7          20.0 GUNEOCPI52
     ZKA5A38  C2018 05 16.34987 13 09 56.50 -02 31 58.0          20.0 GUNEOCPI52
     ZKA5A38 KC2018 05 16PqXPrA?.$,,_(`/4Hredacted;CqNOORpnM66#@_T7^c9#K=cWWkL01
     ZKA5A38 KC2018 05 16rftcQHmTcN\e_@$m1B,O6cSM2d^*xXnP'a05$_qX$1R(X%dm;NGHL01
     ZKA5A38 KC2018 05 16!33sq=rPeH12F_qr=O)pXah]5xT\F/J3(A+Kp\wi]\:USj8#HSk_L01
     ZKA5A38 KC2018 05 16.95670 13 16 40.89 -01 28 21.4                VNEOCPJ95
     ZKA5A38 KC2018 05 16.96845 13 16 48.49 -01 27 06.1                VNEOCPJ95
     ZKA5A38 KC2018 05 16.97592 13 16 53.30 -01 26 18.0          20.3 GVNEOCPJ95
     ZKA5A38  C2018 05 17.22942 13 19 46.29 -00 58 29.9          20.4 GUNEOCPI52
     ZKA5A38  C2018 05 17.23216 13 19 48.05 -00 58 12.0          20.5 GUNEOCPI52
     ZKA5A38  C2018 05 17.23312 13 19 48.65 -00 58 05.8          20.5 GUNEOCPI52
     ZKA5A38  C2018 05 17.23408 13 19 49.27 -00 57 59.4          20.7 GUNEOCPI52
     ZKA5A38  C2018 05 17.91037 13 27 38.90 +00 15 56.1          20.6 VSNEOCP033
     ZKA5A38  C2018 05 17.91191 13 27 39.97 +00 16 06.4          20.4 VSNEOCP033
     ZKA5A38  C2018 05 17.91346 13 27 41.02 +00 16 16.7          20.5 VSNEOCP033
     ZKA5A38  C2018 05 17.91500 13 27 42.06 +00 16 27.3          20.4 VSNEOCP033
     ZKA5A38  C2018 05 17.91655 13 27 43.08 +00 16 37.7          20.6 VSNEOCP033
     ZKA5A38  C2018 05 17.91809 13 27 44.12 +00 16 47.8          21.0 VSNEOCP033
     ZKA5A38  C2018 05 17.91964 13 27 45.17 +00 16 58.3          20.5 VSNEOCP033
     ZKA5A38 KC2018 05 18Y7g=7PgKY.V3ZjpWYSmsbGcTJebp$uvocm-mZ2LCB`#HPMc[s\wtH36
     ZKA5A38 KC2018 05 18RE?:oD5kmR_Fs2L.fsWG7Y(0Y_p1*5%Ssee3oD'G][G1HtMV`G3WH36
     ZKA5A38 KC2018 05 18HJ6*5,ctOXlTeYI/`KGBLXj_a`4r.8bl'IVUK+gq9RQc7h=3:OW;H36
     ZKA5A38  C2018 05 18.20135 13 31 07.89 +00 49 00.7          20.3 GUNEOCPI52
     ZKA5A38  C2018 05 18.20231 13 31 08.52 +00 49 07.8          20.5 GUNEOCPI52
     ZKA5A38  C2018 05 18.20328 13 31 09.18 +00 49 13.9          20.1 GUNEOCPI52
     ZKA5A38  C2018 05 18.20424 13 31 09.84 +00 49 20.6          20.1 GUNEOCPI52
     ZKA5A38 |C2018 05 194XVuF(]^jP@9,u?k=6*ogGeYi(F*W$yl6UA\7Xt'.:unjn_-*DVL807
     ZKA5A38 |C2018 05 19EB_5J+s\cr(y'I['VyjJt^:hx!MvXSuT80$C):aUB`\EvT',TqV(807
     ZKA5A38 |C2018 05 19/KKaLx]^+Y8CCq@'e'\.BsSMZJ[+d;+5Xg:prMc;p45Qy=hNEOCP807
     ZKA5A38  C2018 05 19.29563 13 44 29.72 +02 54 18.8          20.8 GUNEOCPI52
     ZKA5A38  C2018 05 19.30119 13 44 33.73 +02 54 57.7          21.1 GUNEOCPI52
     ZKA5A38  C2018 05 19.30345 13 44 35.33 +02 55 12.9          21.0 GUNEOCPI52

Station data:
(033) Karl Schwarzschild Observatory, Tautenburg  (N50.980140 E11.711240)
   Germany. 1.3-m Schmidt.
(807) Cerro Tololo Observatory, La Serena  (S30.169136 W70.805900)  Chile.
   Observers M. Holman, J. Kavelaars, T. Grav, W. Fraser. Measurer M. Holman.
   4-m Blanco reflector + CCD.
(G96) Mt. Lemmon Survey  (N32.442754 W110.788720)  US/Arizona.  Observers E.
   J. Christensen, A. R. Gibbs, A. D. Grauer, R. E. Hill, J. A. Johnson, R.
   A. Kowalski, S. M. Larson, F. C. Shelly. 1.5-m reflector + CCD.
(H01) Magdalena Ridge Observatory, Socorro  (N33.985151 W107.189200)  US/New
   Mexico.  Observers W. H. Ryan, E. V. Ryan. Measurer W. H. Ryan. 2.4-m
   f/8.9 reflector + CCD.
(H36) Sandlot Observatory, Scranton  (N38.797693 W95.706400)  US/Kansas.
   Observer G. Hug. 0.56-m reflector + CCD.
(I52) Steward Observatory, Mt. Lemmon Station  (N32.442547 W110.788920)
   US/Arizona.
(J95) Great Shefford  (N51.474970 W1.447000)  UK.  Observer P. Birtwhistle.
   0.40-m f/6.0 Schmidt-Cassegrain + CCD.
(L01) Višnjan Observatory, Tičan  (N45.290900 E13.749300)  Croatia.

Orbital elements:  ZKA5A38
   Perihelion 2018 May 23.282088 +/- 0.00349 TT =  6:46:12 (JD 2458261.782088)
Epoch 2018 May 19.0 TT = JDT 2458257.5   Earth MOID: 0.0608   AutoNEOCP
M 358.84327 +/- 0.0039              (J2000 ecliptic)
n   0.27013147 +/- 0.00109          Peri.    9.68955 +/- 0.0057
a   2.37002313 +/- 0.00635          Node   230.67763 +/- 0.0044
e   0.5489847 +/- 0.00117           Incl.    9.35786 +/- 0.013
P   3.65                   H 24.8   G  0.15   U  8.2  
q 1.06891665 +/- 9.85e-5    Q 3.67112961 +/- 0.0127
From 46 observations 2018 May 16-19; mean residual 0".28
Residuals in arcseconds: 
180516 G96  .18-  .14-    180516 L01  .14-  .42-    180517 033  .25-  .22+    
180516 G96  .03-  .03+    180516 L01  .74+  .85-    180518 H36  .02+  1.0+    
180516 G96  .02-  .12+    180516 L01  .12+  .02+    180518 H36  .49-  .65-    
180516 G96  .49-  .19+    180516 J95  .23-  .25+    180518 H36  .02+  .46-    
180516 I52  .10-  .39+    180516 J95  .33+  .05-    180518 I52  .09-  .51-    
180516 I52  .07-  .04+    180516 J95  .24+  .03-    180518 I52  .36-  .10+    
180516 I52  .19+  .44+    180517 I52  .23-  .17-    180518 I52  .29-  .36-    
180516 I52  .07-  .19-    180517 I52  .18-  .11-    180518 I52  .11-  .14-    
180516 H01  .08-  .09+    180517 I52  .41-  .16-    180519 807  .33-  .36+    
180516 H01  .13-  .04+    180517 I52  .35-  .01-    180519 807  .12+  .05-    
180516 H01  .15-  .08-    180517 033  .20-  .02+    180519 807  .10+  .11+    
180516 H01  .05-  .02+    180517 033  .23+  .02+    180519 I52  .02-  .07-    
180516 I52  .06-  .15-    180517 033  .25+  .04-    180519 I52  .41+  .16+    
180516 I52  .20+  .01-    180517 033  .22+  .26+    180519 I52  .12+  .35-    
180516 I52  .01+  .02+    180517 033  .22-  .29+    
180516 I52  .44-  .11-    180517 033  .26-  .09+    

Ephemerides (geocentric):
Date (UTC) HH   RA              Dec         delta   r     elong  mag " sig PA
---- -- -- --  ------------   ------------  ------ ------ -----  --- ---- ---
2018 05 19 18  13 50 18.785   +03 48 18.85  .07134 1.0698 143.3 20.6  .06  70
2018 05 19 19  13 50 50.836   +03 53 11.70  .07130 1.0698 143.3 20.6  .06  67
2018 05 19 20  13 51 22.938   +03 58 04.73  .07126 1.0698 143.3 20.6  .06  65
2018 05 19 21  13 51 55.094   +04 02 57.95  .07122 1.0697 143.3 20.6  .07  62
2018 05 19 22  13 52 27.301   +04 07 51.34  .07117 1.0697 143.3 20.6  .07  60
2018 05 19 23  13 52 59.560   +04 12 44.91  .07113 1.0697 143.3 20.6  .07  58
2018 05 20 00  13 53 31.870   +04 17 38.64  .07109 1.0697 143.3 20.6  .08  56
2018 05 20 01  13 54 04.232   +04 22 32.52  .07105 1.0697 143.3 20.6  .08  54
2018 05 20 02  13 54 36.644   +04 27 26.56  .07101 1.0696 143.3 20.6  .09  53
2018 05 20 03  13 55 09.107   +04 32 20.75  .07097 1.0696 143.3 20.6  .09  51
2018 05 20 04  13 55 41.619   +04 37 15.07  .07093 1.0696 143.3 20.6  .10  50
2018 05 20 05  13 56 14.182   +04 42 09.53  .07089 1.0696 143.4 20.6  .10  49
2018 05 20 06  13 56 46.794   +04 47 04.11  .07086 1.0696 143.4 20.6  .11  48
2018 05 20 07  13 57 19.456   +04 51 58.81  .07082 1.0696 143.4 20.6  .11  47
2018 05 20 08  13 57 52.166   +04 56 53.62  .07078 1.0695 143.4 20.6  .12  46
2018 05 20 09  13 58 24.924   +05 01 48.54  .07075 1.0695 143.4 20.6  .12  45
2018 05 20 10  13 58 57.731   +05 06 43.55  .07071 1.0695 143.4 20.6  .13  44
2018 05 20 11  13 59 30.586   +05 11 38.66  .07068 1.0695 143.4 20.6  .13  43
2018 05 20 12  14 00 03.488   +05 16 33.85  .07064 1.0695 143.4 20.6  .14  43
2018 05 20 13  14 00 36.438   +05 21 29.12  .07061 1.0694 143.4 20.6  .14  42
2018 05 20 14  14 01 09.434   +05 26 24.46  .07058 1.0694 143.4 20.6  .15  41
2018 05 20 15  14 01 42.476   +05 31 19.87  .07055 1.0694 143.4 20.6  .15  41
2018 05 20 16  14 02 15.565   +05 36 15.33  .07051 1.0694 143.4 20.6  .16  40
2018 05 20 17  14 02 48.699   +05 41 10.84  .07048 1.0694 143.4 20.6  .16  40
2018 05 20 18  14 03 21.879   +05 46 06.40  .07045 1.0694 143.4 20.6  .17  39
2018 05 20 19  14 03 55.104   +05 51 01.99  .07042 1.0694 143.4 20.6  .18  39
2018 05 20 20  14 04 28.374   +05 55 57.61  .07039 1.0693 143.4 20.6  .18  38
2018 05 20 21  14 05 01.687   +06 00 53.26  .07036 1.0693 143.4 20.6  .19  38
2018 05 20 22  14 05 35.045   +06 05 48.91  .07034 1.0693 143.4 20.6  .19  37
2018 05 20 23  14 06 08.446   +06 10 44.58  .07031 1.0693 143.4 20.6  .20  37
2018 05 21 00  14 06 41.890   +06 15 40.25  .07028 1.0693 143.4 20.6  .20  37
2018 05 21 01  14 07 15.377   +06 20 35.91  .07025 1.0693 143.4 20.6  .21  36
2018 05 21 02  14 07 48.906   +06 25 31.56  .07023 1.0693 143.4 20.6  .22  36
2018 05 21 03  14 08 22.478   +06 30 27.18  .07020 1.0692 143.4 20.6  .22  36
2018 05 21 04  14 08 56.091   +06 35 22.78  .07018 1.0692 143.4 20.6  .23  35
2018 05 21 05  14 09 29.745   +06 40 18.34  .07015 1.0692 143.4 20.6  .24  35
2018 05 21 06  14 10 03.440   +06 45 13.86  .07013 1.0692 143.4 20.6  .24  35
2018 05 21 07  14 10 37.175   +06 50 09.33  .07011 1.0692 143.4 20.6  .25  35
2018 05 21 08  14 11 10.950   +06 55 04.75  .07008 1.0692 143.4 20.6  .25  34
2018 05 21 09  14 11 44.765   +07 00 00.10  .07006 1.0692 143.4 20.6  .26  34
2018 05 21 10  14 12 18.619   +07 04 55.37  .07004 1.0692 143.4 20.6  .27  34
2018 05 21 11  14 12 52.511   +07 09 50.57  .07002 1.0692 143.4 20.6  .27  34
2018 05 21 12  14 13 26.442   +07 14 45.68  .07000 1.0691 143.4 20.6  .28  33
2018 05 21 13  14 14 00.411   +07 19 40.70  .06998 1.0691 143.4 20.6  .29  33
2018 05 21 14  14 14 34.418   +07 24 35.62  .06996 1.0691 143.4 20.6  .29  33
2018 05 21 15  14 15 08.461   +07 29 30.42  .06994 1.0691 143.4 20.6  .30  33
2018 05 21 16  14 15 42.541   +07 34 25.12  .06993 1.0691 143.4 20.6  .31  33
2018 05 21 17  14 16 16.658   +07 39 19.68  .06991 1.0691 143.4 20.6  .32  33